| time (UTC) | temp C | wind direction | speed KPH | gust KPH | rain 1hr cm | rain 24hr cm | rain mn cm | humidity % | barometer mb |
| 20260507065638 | 4 | 0.0 | 0.0 | 0.00 | 1.55 | 0.00 | 92 | 1011.8 | |
| 20260507064618 | 4 | 0.0 | 0.0 | 0.00 | 1.55 | 0.00 | 92 | 1011.7 | |
| 20260507063619 | 4 | 273 | 0.0 | 0.0 | 0.00 | 1.55 | 0.00 | 91 | 1011.9 |
| 20260507062618 | 4 | 0.0 | 0.0 | 0.00 | 1.55 | 0.00 | 91 | 1012.0 | |
| 20260507061639 | 5 | 0.0 | 0.0 | 0.00 | 1.55 | 0.00 | 90 | 1012.1 | |
| 20260507060619 | 5 | 325 | 0.0 | 1.6 | 0.00 | 1.55 | 0.00 | 89 | 1012.0 |
| 20260507055621 | 5 | 244 | 1.6 | 3.2 | 0.00 | 1.55 | 0.00 | 87 | 1012.1 |
| 20260507054620 | 5 | 0.0 | 0.0 | 0.00 | 1.55 | 0.00 | 87 | 1012.1 | |
| 20260507053620 | 5 | 354 | 3.2 | 4.8 | 0.00 | 1.55 | 0.00 | 88 | 1012.1 |
| 20260507052640 | 5 | 54 | 1.6 | 3.2 | 0.00 | 1.55 | 0.00 | 90 | 1012.1 |
| 20260507051621 | 5 | 266 | 0.0 | 1.6 | 0.00 | 1.55 | 0.00 | 91 | 1012.0 |
| 20260507050621 | 5 | 21 | 1.6 | 3.2 | 0.00 | 1.55 | 0.00 | 91 | 1012.2 |
| 20260507045640 | 5 | 310 | 3.2 | 4.8 | 0.00 | 1.55 | 0.00 | 93 | 1012.2 |
| 20260507044620 | 5 | 77 | 1.6 | 3.2 | 0.00 | 1.55 | 0.00 | 94 | 1012.2 |
| 20260507043620 | 5 | 0.0 | 0.0 | 0.00 | 1.55 | 0.00 | 95 | 1012.1 | |
| 20260507042618 | 6 | 305 | 1.6 | 3.2 | 0.00 | 1.55 | 0.00 | 97 | 1012.1 |
| 20260507041616 | 6 | 331 | 1.6 | 8.0 | 0.00 | 1.55 | 0.00 | 98 | 1012.1 |
| 20260507040616 | 6 | 320 | 3.2 | 4.8 | 0.00 | 1.55 | 0.00 | 98 | 1012.1 |
| 20260507035616 | 6 | 10 | 1.6 | 4.8 | 0.00 | 1.55 | 1.55 | 99 | 1011.7 |
| 20260507034616 | 6 | 49 | 3.2 | 4.8 | 0.00 | 1.55 | 1.55 | 99 | 1011.3 |
| 20260507033637 | 6 | 59 | 1.6 | 3.2 | 0.00 | 1.55 | 1.55 | 99 | 1011.2 |
| 20260507032616 | 7 | 51 | 3.2 | 4.8 | 0.00 | 1.55 | 1.55 | 99 | 1011.2 |
| 20260507031618 | 7 | 32 | 3.2 | 4.8 | 0.00 | 1.55 | 1.55 | 99 | 1011.3 |
| 20260507030617 | 7 | 334 | 0.0 | 0.0 | 0.00 | 1.55 | 1.55 | 99 | 1011.3 |
| 20260507025617 | 7 | 15 | 0.0 | 1.6 | 0.00 | 1.55 | 1.55 | 99 | 1011.4 |
| 20260507024617 | 7 | 0.0 | 0.0 | 0.00 | 1.55 | 1.55 | 99 | 1011.4 | |
| 20260507023617 | 7 | 0.0 | 0.0 | 0.00 | 1.55 | 1.55 | 99 | 1011.3 | |
| 20260507022618 | 7 | 334 | 0.0 | 0.0 | 0.00 | 1.55 | 1.55 | 99 | 1011.1 |
| 20260507021618 | 7 | 308 | 1.6 | 1.6 | 0.00 | 1.55 | 1.55 | 99 | 1011.3 |
| 20260507020618 | 7 | 0.0 | 0.0 | 0.00 | 1.55 | 1.55 | 99 | 1011.3 | |
| 20260507015619 | 7 | 238 | 0.0 | 1.6 | 0.00 | 1.55 | 1.55 | 99 | 1011.3 |
| 20260507014638 | 7 | 0.0 | 0.0 | 0.00 | 1.68 | 1.55 | 99 | 1011.5 | |
| 20260507013615 | 7 | 222 | 3.2 | 3.2 | 0.00 | 1.70 | 1.55 | 99 | 1011.2 |
| 20260507012616 | 6 | 251 | 3.2 | 4.8 | 0.00 | 1.70 | 1.55 | 99 | 1011.4 |
| 20260507011616 | 6 | 281 | 0.0 | 1.6 | 0.00 | 1.70 | 1.55 | 99 | 1011.4 |
| 20260507010616 | 6 | 0.0 | 0.0 | 0.00 | 1.70 | 1.55 | 99 | 1011.2 | |
| 20260507005615 | 6 | 73 | 1.6 | 3.2 | 0.00 | 1.70 | 1.55 | 99 | 1011.0 |
| 20260507004637 | 7 | 0.0 | 0.0 | 0.00 | 1.70 | 1.55 | 99 | 1011.0 | |
| 20260507003616 | 7 | 0.0 | 0.0 | 0.00 | 1.70 | 1.55 | 99 | 1010.8 | |
| 20260507002617 | 7 | 200 | 0.0 | 1.6 | 0.00 | 1.70 | 1.55 | 99 | 1010.8 |
| 20260507001616 | 7 | 0.0 | 0.0 | 0.00 | 1.70 | 1.55 | 99 | 1010.7 | |
| 20260507000617 | 7 | 0.0 | 0.0 | 0.00 | 1.70 | 1.55 | 99 | 1010.6 | |
| 20260506235617 | 6 | 216 | 1.6 | 3.2 | 0.00 | 1.83 | 1.55 | 99 | 1010.6 |
| 20260506234617 | 6 | 0.0 | 0.0 | 0.00 | 1.83 | 1.55 | 99 | 1010.5 | |
| 20260506233638 | 7 | 0.0 | 0.0 | 0.00 | 1.83 | 1.55 | 99 | 1010.4 | |
| 20260506232638 | 7 | 0.0 | 0.0 | 0.00 | 1.83 | 1.55 | 99 | 1010.5 | |
| 20260506231618 | 6 | 0.0 | 0.0 | 0.00 | 1.83 | 1.55 | 99 | 1010.4 | |
| 20260506230618 | 6 | 0 | 0.0 | 1.6 | 0.00 | 1.83 | 1.55 | 99 | 1010.2 |
| 20260506225618 | 6 | 78 | 3.2 | 4.8 | 0.00 | 1.83 | 1.55 | 99 | 1010.1 |
| 20260506224639 | 6 | 0.0 | 0.0 | 0.00 | 1.83 | 1.55 | 100 | 1010.0 | |
| 20260506223618 | 6 | 313 | 0.0 | 1.6 | 0.00 | 1.83 | 1.55 | 100 | 1010.1 |
| 20260506222618 | 6 | 0.0 | 0.0 | 0.00 | 2.03 | 1.55 | 100 | 1009.9 | |
| 20260506221616 | 6 | 26 | 0.0 | 1.6 | 0.00 | 2.03 | 1.55 | 100 | 1009.9 |
| 20260506220616 | 6 | 0.0 | 0.0 | 0.00 | 2.03 | 1.55 | 100 | 1009.8 | |
| 20260506215616 | 6 | 75 | 3.2 | 3.2 | 0.00 | 2.03 | 1.55 | 100 | 1010.0 |
| 20260506214616 | 6 | 49 | 1.6 | 4.8 | 0.00 | 2.03 | 1.55 | 100 | 1010.1 |
| 20260506213617 | 6 | 142 | 1.6 | 4.8 | 0.00 | 2.03 | 1.55 | 100 | 1010.0 |
| 20260506212617 | 6 | 36 | 1.6 | 3.2 | 0.00 | 2.03 | 1.55 | 100 | 1009.9 |
| 20260506211617 | 6 | 62 | 1.6 | 1.6 | 0.00 | 2.03 | 1.55 | 100 | 1009.9 |
| 20260506210617 | 6 | 62 | 3.2 | 4.8 | 0.00 | 2.03 | 1.55 | 100 | 1009.9 |
| 20260506205638 | 6 | 81 | 4.8 | 6.4 | 0.00 | 2.03 | 1.55 | 100 | 1009.8 |
| 20260506204618 | 6 | 86 | 4.8 | 6.4 | 0.00 | 2.03 | 1.55 | 100 | 1009.8 |
| 20260506203617 | 6 | 311 | 3.2 | 6.4 | 0.00 | 2.03 | 1.55 | 100 | 1009.7 |
| 20260506202617 | 6 | 7 | 0.0 | 3.2 | 0.00 | 2.03 | 1.55 | 100 | 1009.5 |
| 20260506201617 | 6 | 0 | 3.2 | 6.4 | 0.00 | 2.03 | 1.55 | 100 | 1009.3 |
| 20260506200618 | 6 | 20 | 1.6 | 4.8 | 0.00 | 2.03 | 1.55 | 100 | 1009.3 |
| 20260506195618 | 6 | 58 | 4.8 | 4.8 | 0.00 | 2.03 | 1.55 | 100 | 1009.1 |
| 20260506194619 | 6 | 0.0 | 0.0 | 0.00 | 2.03 | 1.55 | 100 | 1009.2 | |
| 20260506193636 | 7 | 64 | 4.8 | 4.8 | 0.00 | 2.03 | 1.55 | 99 | 1009.1 |
| 20260506192616 | 6 | 75 | 4.8 | 4.8 | 0.00 | 2.03 | 1.55 | 99 | 1008.8 |
| 20260506191616 | 6 | 62 | 1.6 | 4.8 | 0.00 | 2.03 | 1.55 | 99 | 1008.8 |
| 20260506190616 | 7 | 81 | 4.8 | 6.4 | 0.00 | 2.03 | 1.55 | 99 | 1008.8 |
| 20260506185616 | 7 | 67 | 3.2 | 6.4 | 0.00 | 2.03 | 1.55 | 99 | 1008.7 |
| 20260506184616 | 7 | 28 | 1.6 | 3.2 | 0.00 | 2.03 | 1.55 | 99 | 1008.6 |
| 20260506183616 | 7 | 56 | 1.6 | 3.2 | 0.00 | 2.03 | 1.55 | 99 | 1008.7 |
| 20260506182617 | 7 | 54 | 1.6 | 4.8 | 0.00 | 2.03 | 1.55 | 99 | 1008.7 |
| 20260506181617 | 7 | 266 | 1.6 | 3.2 | 0.00 | 2.03 | 1.55 | 99 | 1008.6 |
| 20260506180638 | 7 | 51 | 0.0 | 3.2 | 0.00 | 2.03 | 1.55 | 99 | 1008.5 |
| 20260506175638 | 7 | 354 | 3.2 | 4.8 | 0.00 | 2.03 | 1.55 | 99 | 1008.3 |
| 20260506174618 | 7 | 60 | 3.2 | 4.8 | 0.00 | 2.13 | 1.55 | 99 | 1008.1 |
| 20260506173618 | 7 | 69 | 4.8 | 8.0 | 0.00 | 2.16 | 1.55 | 99 | 1008.0 |
| 20260506172618 | 7 | 58 | 1.6 | 6.4 | 0.00 | 2.16 | 1.55 | 99 | 1007.8 |
| 20260506171618 | 7 | 8 | 1.6 | 3.2 | 0.00 | 2.16 | 1.55 | 99 | 1007.9 |
| 20260506170618 | 7 | 326 | 1.6 | 4.8 | 0.00 | 2.16 | 1.55 | 99 | 1007.7 |
| 20260506165615 | 7 | 59 | 1.6 | 4.8 | 0.00 | 2.16 | 1.55 | 99 | 1007.8 |
| 20260506164619 | 7 | 69 | 3.2 | 6.4 | 0.00 | 2.16 | 1.55 | 99 | 1007.8 |
| 20260506163616 | 7 | 73 | 6.4 | 8.0 | 0.00 | 2.16 | 1.55 | 99 | 1007.7 |
| 20260506162616 | 7 | 45 | 3.2 | 6.4 | 0.00 | 2.16 | 1.55 | 99 | 1007.7 |
| 20260506161637 | 7 | 330 | 0.0 | 1.6 | 0.00 | 2.16 | 1.55 | 99 | 1007.7 |
| 20260506160617 | 6 | 317 | 3.2 | 6.4 | 0.00 | 2.16 | 1.55 | 99 | 1007.9 |
| 20260506155616 | 6 | 22 | 1.6 | 3.2 | 0.00 | 2.16 | 1.55 | 99 | 1007.7 |
| 20260506154616 | 6 | 30 | 1.6 | 3.2 | 0.00 | 2.16 | 1.55 | 99 | 1007.6 |
| 20260506153616 | 6 | 6 | 0.0 | 1.6 | 0.00 | 2.16 | 1.55 | 99 | 1007.7 |
| 20260506152617 | 6 | 68 | 3.2 | 6.4 | 0.00 | 2.16 | 1.55 | 99 | 1007.8 |
| 20260506151637 | 6 | 61 | 4.8 | 6.4 | 0.03 | 2.16 | 1.55 | 99 | 1007.6 |
| 20260506150637 | 6 | 30 | 3.2 | 6.4 | 0.10 | 2.16 | 1.55 | 99 | 1007.6 |
| 20260506145618 | 6 | 31 | 3.2 | 4.8 | 0.13 | 2.16 | 1.55 | 99 | 1007.7 |
| 20260506144617 | 6 | 276 | 1.6 | 4.8 | 0.15 | 2.16 | 1.55 | 99 | 1007.4 |
| 20260506143618 | 6 | 354 | 0.0 | 3.2 | 0.15 | 2.16 | 1.55 | 99 | 1007.1 |
| 20260506142638 | 6 | 261 | 3.2 | 4.8 | 0.15 | 2.16 | 1.55 | 99 | 1007.3 |
| 20260506141658 | 6 | 307 | 3.2 | 4.8 | 0.15 | 2.13 | 1.52 | 99 | 1007.3 |
| 20260506140619 | 6 | 36 | 1.6 | 3.2 | 0.10 | 2.06 | 1.45 | 99 | 1007.3 |
| 20260506135636 | 6 | 196 | 1.6 | 3.2 | 0.13 | 2.03 | 1.42 | 99 | 1007.4 |
| 20260506134616 | 6 | 36 | 4.8 | 6.4 | 0.20 | 2.01 | 1.40 | 99 | 1007.3 |
| 20260506133616 | 6 | 266 | 3.2 | 6.4 | 0.25 | 2.01 | 1.40 | 99 | 1007.4 |
| 20260506132615 | 6 | 345 | 1.6 | 3.2 | 0.28 | 1.98 | 1.37 | 99 | 1007.5 |
| 20260506131616 | 6 | 64 | 3.2 | 4.8 | 0.28 | 1.98 | 1.35 | 99 | 1007.6 |
| 20260506130616 | 6 | 288 | 3.2 | 4.8 | 0.30 | 1.96 | 1.32 | 99 | 1007.6 |
| 20260506125616 | 6 | 12 | 3.2 | 6.4 | 0.28 | 1.91 | 1.27 | 99 | 1007.7 |
| 20260506124617 | 6 | 351 | 3.2 | 6.4 | 0.23 | 1.83 | 1.19 | 99 | 1007.4 |
| 20260506123617 | 6 | 23 | 1.6 | 3.2 | 0.23 | 1.78 | 1.14 | 99 | 1007.6 |
| 20260506122617 | 6 | 311 | 3.2 | 4.8 | 0.20 | 1.73 | 1.09 | 99 | 1007.6 |
| 20260506121617 | 6 | 305 | 1.6 | 4.8 | 0.18 | 1.68 | 1.07 | 99 | 1007.5 |
| 20260506120617 | 6 | 305 | 1.6 | 4.8 | 0.18 | 1.65 | 1.04 | 99 | 1007.2 |
| 20260506115617 | 6 | 1 | 1.6 | 3.2 | 0.20 | 1.63 | 0.99 | 99 | 1007.3 |
| 20260506114618 | 6 | 67 | 4.8 | 9.7 | 0.20 | 1.57 | 0.97 | 99 | 1007.3 |
| 20260506113618 | 6 | 17 | 3.2 | 6.4 | 0.28 | 1.55 | 0.94 | 99 | 1007.2 |
| 20260506112618 | 6 | 346 | 1.6 | 4.8 | 0.41 | 1.52 | 0.89 | 99 | 1007.0 |
| 20260506111639 | 6 | 26 | 3.2 | 4.8 | 0.51 | 1.50 | 0.89 | 99 | 1006.9 |
| 20260506110619 | 7 | 11 | 3.2 | 4.8 | 0.58 | 1.47 | 0.86 | 99 | 1006.9 |
| 20260506105616 | 7 | 51 | 4.8 | 8.0 | 0.61 | 1.42 | 0.81 | 99 | 1007.0 |
| 20260506104616 | 7 | 310 | 4.8 | 9.7 | 0.58 | 1.37 | 0.76 | 99 | 1006.9 |
| 20260506103636 | 7 | 0.0 | 0.0 | 0.48 | 1.27 | 0.64 | 99 | 1007.0 | |
| 20260506102616 | 7 | 65 | 0.0 | 3.2 | 0.36 | 1.12 | 0.51 | 99 | 1006.8 |
| 20260506101616 | 8 | 301 | 3.2 | 4.8 | 0.23 | 0.99 | 0.36 | 99 | 1006.8 |
| 20260506100636 | 8 | 274 | 1.6 | 4.8 | 0.13 | 0.89 | 0.25 | 99 | 1006.7 |
| 20260506095617 | 8 | 9 | 0.0 | 1.6 | 0.08 | 0.81 | 0.20 | 99 | 1006.6 |
| 20260506094616 | 7 | 52 | 0.0 | 1.6 | 0.08 | 0.79 | 0.18 | 99 | 1006.8 |
| 20260506093617 | 7 | 39 | 3.2 | 4.8 | 0.05 | 0.79 | 0.15 | 99 | 1006.8 |
| 20260506092618 | 7 | 60 | 4.8 | 8.0 | 0.05 | 0.76 | 0.15 | 99 | 1006.9 |
| 20260506091617 | 8 | 16 | 3.2 | 4.8 | 0.10 | 0.94 | 0.15 | 99 | 1007.2 |
| 20260506090618 | 8 | 81 | 4.8 | 9.7 | 0.10 | 0.94 | 0.15 | 98 | 1007.4 |
| 20260506085618 | 8 | 130 | 1.6 | 3.2 | 0.10 | 0.91 | 0.13 | 98 | 1007.7 |
| 20260506084618 | 8 | 63 | 3.2 | 6.4 | 0.10 | 0.89 | 0.10 | 98 | 1007.7 |
| 20260506083757 | 8 | 54 | 3.2 | 4.8 | 0.10 | 0.89 | 0.10 | 98 | 1007.5 |
| 20260506082616 | 8 | 63 | 1.6 | 4.8 | 0.10 | 0.89 | 0.10 | 98 | 1007.7 |
| 20260506081616 | 8 | 11 | 1.6 | 4.8 | 0.05 | 0.84 | 0.05 | 98 | 1007.8 |
| 20260506080616 | 8 | 18 | 1.6 | 3.2 | 0.03 | 0.84 | 0.03 | 98 | 1007.2 |
| 20260506072616 | 8 | 287 | 0.0 | 1.6 | 0.00 | 0.79 | 0.00 | 98 | 1007.1 |
| 20260506071617 | 8 | 340 | 0.0 | 1.6 | 0.00 | 0.79 | 0.00 | 97 | 1007.3 |
| 20260506070638 | 8 | 215 | 4.8 | 6.4 | 0.00 | 0.79 | 0.00 | 97 | 1007.4 |